O3B FM5 1 39188U 13031A 24289.41171421 -.00000016 00000-0 00000-0 0 9991 2 39188 0.0689 358.3607 0002520 205.9909 155.6424 5.00115045206533 O3B FM4 1 39189U 13031B 24289.66709957 -.00000016 00000-0 00000-0 0 9990 2 39189 0.0414 353.9326 0002521 209.7581 156.3035 5.00114999206564 O3B FM2 1 39190U 13031C 24289.15925802 -.00000016 00000-0 00000-0 0 9995 2 39190 0.0368 350.8682 0002542 214.4236 154.7016 5.00115539206582 O3B PFM 1 39191U 13031D 24288.98466948 -.00000016 00000-0 00000-0 0 9997 2 39191 0.0599 358.8959 0002619 206.4030 154.6941 5.00116115206141 O3B FM3 1 40079U 14038A 24287.24050374 -.00000016 00000-0 00000-0 0 9992 2 40079 0.0492 354.8969 0005007 219.2841 145.7925 5.00114633182423 O3B FM7 1 40080U 14038B 24288.98579437 -.00000016 00000-0 00000-0 0 9992 2 40080 0.0470 350.3972 0000751 199.2462 170.3611 5.00115068187359 O3B FM6 1 40081U 14038C 24289.81253073 -.00000016 00000-0 00000-0 0 9991 2 40081 0.0482 355.8220 0002645 211.3278 152.8423 5.00115371187346 O3B FM8 1 40082U 14038D 24289.46623622 -.00000016 00000-0 00000-0 0 9994 2 40082 0.0478 354.7014 0002722 207.9207 157.3718 5.00115463187440 O3B FM10 1 40348U 14083A 24288.49320550 -.00000016 00000-0 00000-0 0 9995 2 40348 0.0555 1.6111 0002609 202.6371 155.7453 5.00115598179342 O3B FM11 1 40349U 14083B 24287.50696849 -.00000016 00000-0 00000-0 0 9994 2 40349 0.0572 357.1184 0001970 213.3723 149.5036 5.00115551179304 O3B FM12 1 40350U 14083C 24288.53370755 -.00000016 00000-0 00000-0 0 9995 2 40350 0.0563 357.3488 0002579 210.1658 152.4776 5.00115617179377 O3B FM9 1 40351U 14083D 24288.36044865 -.00000016 00000-0 00000-0 0 9997 2 40351 0.0580 356.2074 0002565 208.1455 155.6407 5.00115221179516